This demonstration page uses our WeatherBlox Daily Observations layout. Learn more.

Left ArrowRight Arrow

40.92945, -100.16068

Hourly Observations for April 16, 2021

Temp ( °F °C ) Dew Point ( °F °C ) Humidity (%) Winds ( mph kmh ) Pressure ( in mb ) Visibility ( mi km ) Precip ( " mm )
12:15 am 00:15 Cloudy with Light Snow 35 1.4 32 0.1 91 91 NE 10 17 30.21 1023 4 6.43736 0.03 0.762
12:35 am 00:35 Cloudy with Snow 33 0.6 32 0 96 96 ENE 6 9 30.23 1024 0.75 1.207005 0.04 1.016
12:55 am 00:55 Cloudy with Snow 33 0.5 32 0 96 96 NE 6 9 30.22 1023 0.75 1.207005 0.05 1.27
1:15 am 01:15 Cloudy with Light Snow 33 0.5 32 0 96 96 NNE 6 9 30.22 1023 1.25 2.011675 0.01 0.254
1:35 am 01:35 Cloudy with Light Snow 33 0.5 32 0 96 96 N 6 9 30.22 1023 1.5 2.41401 0.06 1.524
1:55 am 01:55 Cloudy with Light Snow 33 0.5 32 0.1 97 97 N 6 9 30.22 1023 2 3.21868 0.08 2.032
2:15 am 02:15 Cloudy with Light Snow 33 0.5 32 0.1 97 97 NNE 6 9 30.21 1023 3 4.82802 0.03 0.762
2:35 am 02:35 Cloudy with Light Snow 33 0.5 32 0.1 97 97 N 3 6 30.21 1023 4 6.43736 0.06 1.524
2:55 am 02:55 Cloudy with Light Snow 33 0.5 32 0.1 97 97 N 5 7 30.21 1023 4 6.43736 0.08 2.032
3:15 am 03:15 Cloudy with Light Snow 33 0.5 32 0.1 97 97 N 5 7 30.2 1023 2 3.21868 0 0
3:35 am 03:35 Cloudy with Light Snow 33 0.5 32 0.1 97 97 N 5 7 30.2 1023 1.5 2.41401 0.01 0.254
3:55 am 03:55 Cloudy with Light Snow 33 0.5 32 0.1 97 97 N 3 6 30.2 1023 1.25 2.011675 0.03 0.762
4:15 am 04:15 Cloudy with Light Snow 33 0.5 32 0.1 97 97 N 3 6 30.2 1023 1.5 2.41401 0.01 0.254
4:35 am 04:35 Cloudy with Light Snow 33 0.5 32 0.1 97 97 Calm 30.2 1023 1.25 2.011675 0.02 0.508
4:55 am 04:55 Cloudy with Light Snow 33 0.5 32 0.1 97 97 NNW 3 6 30.19 1022 1.25 2.011675 0.04 1.016
5:15 am 05:15 Cloudy with Snow 33 0.5 32 0.1 97 97 Calm 30.18 1022 0.75 1.207005 0 0
5:35 am 05:35 Cloudy with Snow 33 0.5 32 0.1 97 97 Calm 30.19 1022 1 1.60934 0 0
5:55 am 05:55 Cloudy with Snow 33 0.4 32 0.1 98 98 Calm 30.18 1022 0.75 1.207005 0.02 0.508
6:15 am 06:15 Cloudy with Snow 33 0.5 32 0.1 97 97 Calm 30.18 1022 1 1.60934 0.01 0.254
6:35 am 06:35 Cloudy with Light Snow 33 0.5 32 0.1 97 97 Calm 30.18 1022 1.25 2.011675 0.06 1.524
6:55 am 06:55 Cloudy with Light Snow 33 0.5 32 0.1 97 97 Calm 30.18 1022 1.75 2.816345 0.09 2.286
7:15 am 07:15 Cloudy with Light Snow 33 0.5 32 0.1 97 97 Calm 30.17 1022 2 3.21868 0.02 0.508
7:35 am 07:35 Cloudy with Light Snow 33 0.5 32 0.2 98 98 NW 3 6 30.18 1022 1.25 2.011675 0.04 1.016
7:55 am 07:55 Cloudy with Light Snow 33 0.5 32 0.2 98 98 NW 3 6 30.18 1022 1.75 2.816345 0.06 1.524
8:15 am 08:15 Cloudy with Light Snow 33 0.5 32 0.2 98 98 NW 3 6 30.19 1022 2 3.21868 0.01 0.254
8:35 am 08:35 Cloudy with Light Snow 33 0.5 32 0.2 98 98 NW 3 6 30.19 1022 4 6.43736 0.03 0.762
8:55 am 08:55 Cloudy with Light Snow 33 0.6 33 0.3 98 98 NW 3 6 30.19 1022 2.5 4.02335 0.04 1.016
9:15 am 09:15 Cloudy with Light Wintry Mix 33 0.7 33 0.5 99 99 NW 3 6 30.19 1022 2.5 4.02335 0 0
9:35 am 09:35 Cloudy with Light Snow 33 0.7 33 0.3 97 97 NW 6 9 30.19 1022 1.5 2.41401 0.01 0.254
9:55 am 09:55 Cloudy with Light Snow 33 0.8 33 0.4 97 97 NW 7 11 30.19 1022 1.75 2.816345 0.01 0.254
10:15 am 10:15 Cloudy with Light Snow 34 1 33 0.5 97 97 NW 7 11 30.19 1022 2 3.21868 0 0
10:35 am 10:35 Cloudy with Light Snow 34 1.1 33 0.5 96 96 NW 7 11 30.2 1023 3 4.82802 0.01 0.254
10:55 am 10:55 Cloudy with Light Snow 34 1.1 33 0.5 96 96 NW 7 11 30.2 1023 2.5 4.02335 0.01 0.254
11:15 am 11:15 Cloudy with Light Snow 34 1.2 33 0.5 95 95 NW 7 11 30.2 1023 4 6.43736 0 0
11:35 am 11:35 Cloudy with Light Snow 34 1.2 33 0.5 95 95 NW 9 15 30.2 1023 4 6.43736 0 0
11:55 am 11:55 Cloudy with Light Snow 34 1.2 33 0.5 95 95 NW 8 13 30.2 1023 3 4.82802 0 0
12:15 pm 12:15 Cloudy with Light Snow 34 1.2 33 0.5 95 95 NW 7 11 30.2 1023 2 3.21868 0 0
12:35 pm 12:35 Cloudy with Light Snow 34 1.2 33 0.5 95 95 NW 8 13 30.2 1023 2.5 4.02335 0.01 0.254
12:55 pm 12:55 Cloudy with Light Snow 34 1.3 33 0.5 94 94 NNW 8 13 30.19 1022 2.5 4.02335 0.02 0.508
1:15 pm 13:15 Cloudy with Light Rain 35 1.6 33 0.6 93 93 NNW 9 15 30.19 1022 7 11.26538 0.01 0.254
1:40 pm 13:40 Cloudy with Light Rain 36 2 34 1 93 93 NNW 9 15 30.19 1022 5 8.0467 0.01 0.254
1:55 pm 13:55 Cloudy with Light Rain 35 1.6 33 0.6 93 93 NNW 9 15 30.19 1022 5 8.0467 0.02 0.508
2:15 pm 14:15 Cloudy with Light Rain 35 1.7 33 0.7 93 93 NNW 10 17 30.19 1022 7 11.26538 0 0
2:35 pm 14:35 Cloudy with Light Rain 35 1.5 33 0.6 94 94 NNW 9 15 30.19 1022 5 8.0467 0.01 0.254
2:55 pm 14:55 Cloudy with Light Rain 35 1.6 33 0.6 93 93 NNW 9 15 30.19 1022 10 16.0934 0.01 0.254
3:15 pm 15:15 Cloudy with Light Rain 36 2 34 0.9 93 93 NNW 10 17 30.19 1022 10 16.0934 0 0
3:35 pm 15:35 Cloudy with Light Snow 36 2.1 34 1 93 93 NNW 12 19 30.19 1022 10 16.0934 0 0
3:55 pm 15:55 Cloudy with Light Rain 36 2.2 34 1.1 93 93 NW 8 13 30.19 1022 10 16.0934 0 0
4:15 pm 16:15 Cloudy with Light Rain 36 2.3 35 1.4 94 94 NW 10 17 30.17 1022 7 11.26538 0.01 0.254
4:35 pm 16:35 Cloudy with Drizzle 37 2.5 35 1.5 93 93 NW 10 17 30.17 1022 5 8.0467 0.01 0.254
4:55 pm 16:55 Cloudy with Light Rain 37 2.8 36 2 95 95 NW 10 17 30.17 1022 5 8.0467 0.01 0.254
5:15 pm 17:15 Cloudy with Light Rain 38 3.1 36 2.2 94 94 NW 13 20 30.17 1022 7 11.26538 0 0
5:35 pm 17:35 Cloudy with Drizzle 38 3.4 37 2.5 94 94 NW 14 22 30.16 1021 7 11.26538 0 0
5:55 pm 17:55 Cloudy with Light Rain 38 3.2 36 2.4 95 95 NW 12 19 30.17 1022 10 16.0934 0.01 0.254
6:15 pm 18:15 Cloudy with Drizzle 38 3.5 37 2.5 93 93 NW 10 17 30.17 1022 10 16.0934 0 0
6:35 pm 18:35 Cloudy with Drizzle 38 3.3 36 2.4 94 94 NW 9 15 30.17 1022 10 16.0934 0 0
6:55 pm 18:55 Cloudy 38 3.5 36 2.4 93 93 NW 9 15 30.17 1022 10 16.0934 0 0
7:15 pm 19:15 Cloudy with Light Rain 38 3.3 36 2.3 93 93 NW 9 15 30.17 1022 10 16.0934 0 0
7:35 pm 19:35 Cloudy with Drizzle 38 3.2 36 2.2 93 93 NNW 8 13 30.18 1022 10 16.0934 0 0
7:55 pm 19:55 Cloudy with Drizzle 38 3.1 36 2.1 93 93 NW 9 15 30.18 1022 10 16.0934 0 0
8:15 pm 20:15 Cloudy with Drizzle 37 3 36 2.1 94 94 NW 9 15 30.19 1022 10 16.0934 0 0
8:35 pm 20:35 Cloudy with Drizzle 37 2.9 36 2 94 94 NW 9 15 30.19 1022 10 16.0934 0 0
8:55 pm 20:55 Cloudy with Drizzle 37 3 36 2.2 95 95 NW 8 13 30.2 1023 10 16.0934 0 0
9:15 pm 21:15 Cloudy with Drizzle 37 3 36 2.1 94 94 NW 9 15 30.21 1023 7 11.26538 0 0
9:35 pm 21:35 Cloudy with Drizzle 37 2.7 36 2 95 95 NW 8 13 30.21 1023 10 16.0934 0.01 0.254
9:55 pm 21:55 Cloudy 37 2.8 36 2 95 95 NW 9 15 30.22 1023 10 16.0934 0.01 0.254
10:15 pm 22:15 Cloudy 37 2.8 36 2 95 95 NW 12 19 30.23 1024 10 16.0934 0 0
10:35 pm 22:35 Cloudy with Drizzle 37 2.6 35 1.7 94 94 NW 10 17 30.23 1024 10 16.0934 0 0
10:55 pm 22:55 Cloudy with Drizzle 37 2.6 35 1.8 95 95 NW 10 17 30.23 1024 10 16.0934 0 0
11:15 pm 23:15 Cloudy with Drizzle 37 2.6 35 1.7 94 94 NW 9 15 30.23 1024 10 16.0934 0 0
11:35 pm 23:35 Cloudy with Drizzle 37 2.5 35 1.7 95 95 NW 8 13 30.23 1024 10 16.0934 0 0
11:55 pm 23:55 Cloudy 37 2.6 35 1.8 95 95 NW 9 15 30.23 1024 10 16.0934 0 0

Powered by AerisWeather